DW9152 Jackson Heights NY US current weather conditions

sailwx.info

Wind from 273 at 14 knots gusting 33

Air temperature 4.4° C
Dewpoint -11.6° C

Last reported at 2020-Feb-27 22:02 UTC.
Time now 2020-Feb-27 22:28 UTC

Location: N 40°45' W 073°53'.
View on Google Maps.

See reports from other nearby stations

  
Tides and Currents Weather Stations Pressure Air Temp Water Temp Dewpoint Dewpoint Depression Visibility Wind Speed Wind Dir Waves Ship Positions
date/time (UTC)wind fromknots sea level pressurealtimeterstation pressurevisibilityair tempwater tempwave heightnotes
2020-Feb-27 22:07 320 12 gusting 33 4.4
2020-Feb-27 22:02 273 14 gusting 33 4.4
2020-Feb-27 21:57 300 14 gusting 26 4.4
2020-Feb-27 21:52 293 14 gusting 34 4.4
2020-Feb-27 21:47 300 14 gusting 34 4.4
2020-Feb-27 21:42 349 12 gusting 25 5.0
2020-Feb-27 21:37 349 12 gusting 27 5.0
2020-Feb-27 21:32 259 12 gusting 27 4.4
2020-Feb-27 21:27 320 10 gusting 23 5.0
2020-Feb-27 21:22 275 11 gusting 27 5.0
2020-Feb-27 21:17 254 12 gusting 27 5.0
2020-Feb-27 21:12 294 10 gusting 24 5.0
2020-Feb-27 21:07 317 12 gusting 28 5.0
2020-Feb-27 21:02 310 12 gusting 28 5.0
2020-Feb-27 20:57 318 11 gusting 21 5.6
2020-Feb-27 20:52 312 10 gusting 26 5.6
2020-Feb-27 20:47 287 11 gusting 26 5.6
2020-Feb-27 20:42 279 10 gusting 26 5.6
2020-Feb-27 20:37 274 10 gusting 26 5.6
2020-Feb-27 20:32 277 13 gusting 26 5.6
2020-Feb-27 20:27 302 11 gusting 26 5.6
2020-Feb-27 20:22 253 10 gusting 26 5.6
2020-Feb-27 20:17 304 11 gusting 20 5.6
2020-Feb-27 20:12 285 13 gusting 26 5.6
2020-Feb-27 20:07 269 13 gusting 26 5.6
2020-Feb-27 20:02 325 14 gusting 30 5.6
2020-Feb-27 19:57 285 16 gusting 30 5.0
2020-Feb-27 19:52 289 14 gusting 28 5.0
2020-Feb-27 19:47 272 10 gusting 28 5.6
2020-Feb-27 19:42 254 10 gusting 23 5.6
2020-Feb-27 19:37 260 14 gusting 25 5.6
2020-Feb-27 19:32 249 16 gusting 26 5.0
2020-Feb-27 19:27 314 16 gusting 26 5.0
2020-Feb-27 19:22 272 17 gusting 30 5.0
2020-Feb-27 19:17 304 15 gusting 30 4.4
2020-Feb-27 19:12 306 12 gusting 26 5.0
2020-Feb-27 19:07 282 12 gusting 26 5.0
2020-Feb-27 19:02 304 13 gusting 26 5.0
2020-Feb-27 18:57 312 11 gusting 26 5.6
2020-Feb-27 18:52 298 11 gusting 24 5.6
2020-Feb-27 18:47 275 14 gusting 29 5.0
2020-Feb-27 18:42 318 14 gusting 29 5.0
2020-Feb-27 18:37 301 14 gusting 27 5.0
2020-Feb-27 18:32 349 13 gusting 27 5.0
2020-Feb-27 18:29 285 10 gusting 24 5.6
2020-Feb-27 18:22 230 13 gusting 26 5.0
2020-Feb-27 18:17 283 13 gusting 30 5.6
2020-Feb-27 18:12 294 13 gusting 30 5.6
2020-Feb-27 18:07 277 14 gusting 29 5.0
2020-Feb-27 18:02 304 14 gusting 29 5.0
2020-Feb-27 17:57 302 16 gusting 33 5.0
2020-Feb-27 17:52 354 18 gusting 33 4.4
2020-Feb-27 17:47 310 19 gusting 32 4.4
2020-Feb-27 17:42 295 17 gusting 32 4.4
2020-Feb-27 17:37 302 15 gusting 30 4.4
2020-Feb-27 17:32 325 16 gusting 30 4.4
2020-Feb-27 17:27 312 16 gusting 30 4.4
2020-Feb-27 17:22 294 17 gusting 30 4.4
2020-Feb-27 17:17 294 15 gusting 26 5.0
2020-Feb-27 17:12 316 15 gusting 31 5.0
2020-Feb-27 17:07 270 14 gusting 31 5.0
2020-Feb-27 17:02 298 13 gusting 29 5.0
2020-Feb-27 16:57 274 13 gusting 29 5.0
2020-Feb-27 16:52 298 14 gusting 31 5.0
2020-Feb-27 16:47 305 16 gusting 31 5.0
2020-Feb-27 16:41 304 18 gusting 31 5.0
2020-Feb-27 16:36 289 19 gusting 31 5.0
2020-Feb-27 16:31 322 18 gusting 31 5.0
2020-Feb-27 16:26 287 16 gusting 32 5.0
2020-Feb-27 16:21 303 15 gusting 32 5.0
2020-Feb-27 16:16 312 15 gusting 31 5.0
2020-Feb-27 16:11 339 17 gusting 37 5.0
2020-Feb-27 16:06 279 15 gusting 37 5.0
2020-Feb-27 16:01 302 16 gusting 34 4.4
2020-Feb-27 15:56 291 19 gusting 34 4.4
2020-Feb-27 15:51 289 17 gusting 36 4.4
2020-Feb-27 15:46 306 17 gusting 36 4.4
2020-Feb-27 15:41 303 15 gusting 36 4.4
2020-Feb-27 15:36 267 15 gusting 33 4.4
2020-Feb-27 15:31 308 19 gusting 34 4.4
2020-Feb-27 15:26 283 17 gusting 34 4.4
2020-Feb-27 15:21 276 13 gusting 28 5.0
2020-Feb-27 15:16 249 13 gusting 27 5.0
2020-Feb-27 15:11 287 14 gusting 27 5.0
2020-Feb-27 15:06 260 16 gusting 31 5.0
2020-Feb-27 15:01 287 18 gusting 33 5.0
2020-Feb-27 14:56 282 13 gusting 33 5.0
2020-Feb-27 14:51 270 13 gusting 29 5.0
2020-Feb-27 14:46 247 15 gusting 29 5.0
2020-Feb-27 14:41 313 12 gusting 29 5.0
2020-Feb-27 14:36 287 10 gusting 22 5.0
2020-Feb-27 14:31 264 11 gusting 21 5.0
2020-Feb-27 14:26 302 14 gusting 31 5.0
2020-Feb-27 14:21 318 12 gusting 31 5.0
2020-Feb-27 14:16 329 9 gusting 30 5.0
2020-Feb-27 14:11 299 11 gusting 30 5.0
2020-Feb-27 14:06 311 10 gusting 27 5.6
2020-Feb-27 14:01 274 10 gusting 27 5.6
2020-Feb-27 13:56 297 11 gusting 24 5.6
2020-Feb-27 13:51 303 13 gusting 24 5.0
2020-Feb-27 13:46 286 13 gusting 24 5.6
2020-Feb-27 13:41 270 14 gusting 24 5.0
2020-Feb-27 13:36 263 14 gusting 27 5.6
2020-Feb-27 13:31 289 12 gusting 27 5.6
2020-Feb-27 13:26 257 9 gusting 21 5.6
2020-Feb-27 13:21 282 12 gusting 27 5.6
2020-Feb-27 13:16 318 13 gusting 31 5.0
2020-Feb-27 13:11 262 13 gusting 31 5.0
2020-Feb-27 13:06 267 13 gusting 25 5.0
2020-Feb-27 13:01 271 15 gusting 26 5.6
2020-Feb-27 12:56 337 16 gusting 26 5.6
2020-Feb-27 12:51 280 13 gusting 26 5.6
2020-Feb-27 12:46 280 15 gusting 31 5.6
2020-Feb-27 12:41 271 17 gusting 31 5.6
2020-Feb-27 12:36 305 17 gusting 31 5.6
2020-Feb-27 12:31 266 15 gusting 31 5.6
2020-Feb-27 12:26 279 13 gusting 26 6.1
2020-Feb-27 12:21 290 13 gusting 26 6.1
2020-Feb-27 12:16 250 14 gusting 26 6.1
2020-Feb-27 12:11 273 14 gusting 27 6.1
2020-Feb-27 12:06 283 13 gusting 27 6.1
2020-Feb-27 12:01 258 13 gusting 26 6.1
2020-Feb-27 11:56 266 13 gusting 26 6.1
2020-Feb-27 11:51 250 12 gusting 26 6.1
2020-Feb-27 11:46 264 12 gusting 24 6.7
2020-Feb-27 11:41 265 12 gusting 21 6.7
2020-Feb-27 11:36 276 11 gusting 21 6.7
2020-Feb-27 11:31 297 11 gusting 25 6.7
2020-Feb-27 11:26 258 11 gusting 25 6.7
2020-Feb-27 11:21 258 11 gusting 21 6.7
2020-Feb-27 11:15 267 10 gusting 21 6.7
2020-Feb-27 11:10 306 6 gusting 13 6.7
2020-Feb-27 11:05 254 5 gusting 11 6.7
2020-Feb-27 11:00 290 6 gusting 12 6.7
2020-Feb-27 10:55 338 6 gusting 15 6.7
2020-Feb-27 10:50 254 9 gusting 17 6.7
2020-Feb-27 10:45 327 9 gusting 18 6.7
2020-Feb-27 10:40 310 7 gusting 18 6.7
2020-Feb-27 10:35 275 8 gusting 21 6.7
2020-Feb-27 10:30 335 8 gusting 21 6.7
2020-Feb-27 10:25 296 6 gusting 15 6.7
2020-Feb-27 10:20 318 5 gusting 15 6.7
2020-Feb-27 10:15 261 4 gusting 7 6.1
2020-Feb-27 10:10 296 3 gusting 6 6.1
2020-Feb-27 10:05 305 1 gusting 5 6.1
2020-Feb-27 10:00 279 1 gusting 4 6.1
2020-Feb-27 09:55 337 2 gusting 6 5.6
2020-Feb-27 09:50 327 1 gusting 6 6.1
2020-Feb-27 09:45 023 6.1
2020-Feb-27 09:40 035 6.1
2020-Feb-27 09:35 066 6.1
2020-Feb-27 09:30 069 0 gusting 6 6.1
2020-Feb-27 09:25 072 1 gusting 6 5.6
2020-Feb-27 09:20 061 0 gusting 6 5.6
2020-Feb-27 09:15 042 1 gusting 6 5.6
2020-Feb-27 09:10 034 1 gusting 6 5.6
2020-Feb-27 09:05 358 2 gusting 8 5.6
2020-Feb-27 09:00 058 3 gusting 10 5.6
2020-Feb-27 08:55 323 6 gusting 13 5.6
2020-Feb-27 08:50 058 6 gusting 13 5.6
2020-Feb-27 08:45 028 3 gusting 7 5.6
2020-Feb-27 08:40 054 3 gusting 9 5.6
2020-Feb-27 08:34 015 4 gusting 11 5.6
2020-Feb-27 08:29 056 5 gusting 12 5.6
2020-Feb-27 08:24 020 5 gusting 12 5.6
2020-Feb-27 08:19 344 3 gusting 8 5.6
2020-Feb-27 08:14 322 4 gusting 8 5.6
2020-Feb-27 08:09 045 3 gusting 8 5.6
2020-Feb-27 08:04 064 3 gusting 12 5.6
2020-Feb-27 07:59 102 6 gusting 14 5.6
2020-Feb-27 07:54 042 9 gusting 14 5.6
2020-Feb-27 07:49 044 9 gusting 15 5.6
2020-Feb-27 07:44 079 9 gusting 17 6.1
2020-Feb-27 07:39 087 9 gusting 17 6.1
2020-Feb-27 07:34 044 10 gusting 15 6.1
2020-Feb-27 07:29 080 7 gusting 15 6.7
2020-Feb-27 07:24 069 5 gusting 13 6.1
2020-Feb-27 07:19 087 3 gusting 10 6.1
2020-Feb-27 07:14 043 3 gusting 8 6.1
2020-Feb-27 07:09 091 2 gusting 8 6.1
2020-Feb-27 07:04 354 0 gusting 6 6.1
2020-Feb-27 06:59 306 2 gusting 9 5.6
2020-Feb-27 06:54 058 3 gusting 9 5.6
2020-Feb-27 06:49 049 3 gusting 6 5.6
2020-Feb-27 06:44 052 3 gusting 6 5.6
2020-Feb-27 06:39 054 5 gusting 11 5.6
2020-Feb-27 06:34 079 6 gusting 11 5.6
2020-Feb-27 06:29 039 7 gusting 13 5.6
2020-Feb-27 06:24 078 7 gusting 13 5.6
2020-Feb-27 06:19 080 8 gusting 15 5.6
2020-Feb-27 06:14 042 10 gusting 15 5.6
2020-Feb-27 06:09 058 9 gusting 15 5.6
2020-Feb-27 06:04 049 6 gusting 14 6.1
2020-Feb-27 05:59 051 4 gusting 12 6.1
2020-Feb-27 05:53 045 4 gusting 9 6.1
2020-Feb-27 05:48 080 6 gusting 10 6.1
2020-Feb-27 05:43 054 6 gusting 10 6.7
2020-Feb-27 05:38 078 6 gusting 12 6.7
2020-Feb-27 05:33 083 5 gusting 13 6.7
2020-Feb-27 05:28 055 6 gusting 13 7.2
2020-Feb-27 05:23 035 7 gusting 16 7.2
2020-Feb-27 05:18 017 8 gusting 16 7.2
2020-Feb-27 05:13 100 9 gusting 16 7.2
2020-Feb-27 05:08 099 9 gusting 16 7.2
2020-Feb-27 05:03 096 8 gusting 16 7.2
2020-Feb-27 04:58 054 9 gusting 19 7.2
2020-Feb-27 04:53 097 11 gusting 19 7.2
2020-Feb-27 04:48 107 9 gusting 15 7.2
2020-Feb-27 04:43 093 7 gusting 13 7.2
2020-Feb-27 04:38 098 7 gusting 13 7.2
2020-Feb-27 04:33 075 8 gusting 14 7.2
2020-Feb-27 04:28 081 9 gusting 14 7.2
2020-Feb-27 04:23 094 9 gusting 14 7.2
2020-Feb-27 04:18 098 7 gusting 13 7.2
2020-Feb-27 04:13 097 6 gusting 13 7.2
2020-Feb-27 04:08 111 6 gusting 13 7.2
2020-Feb-27 04:03 112 9 gusting 14 7.2
2020-Feb-27 03:58 093 11 gusting 19 7.2
2020-Feb-27 03:53 132 12 gusting 20 7.2
2020-Feb-27 03:48 103 13 gusting 20 7.2
2020-Feb-27 03:43 100 13 gusting 20 7.2
2020-Feb-27 03:38 096 13 gusting 20 7.2
2020-Feb-27 03:33 108 12 gusting 19 7.2
2020-Feb-27 03:28 095 10 gusting 19 7.2
2020-Feb-27 03:23 099 10 gusting 18 7.2
2020-Feb-27 03:18 114 11 gusting 19 7.2
2020-Feb-27 03:13 108 10 gusting 19 7.2
2020-Feb-27 03:08 090 10 gusting 19 7.2
2020-Feb-27 03:03 073 11 gusting 19 7.2
2020-Feb-27 02:58 086 11 gusting 18 7.2
2020-Feb-27 02:53 088 12 gusting 18 7.2
2020-Feb-27 02:48 098 12 gusting 18 7.2
2020-Feb-27 02:43 088 10 gusting 16 7.2
2020-Feb-27 02:38 116 10 gusting 16 7.2
2020-Feb-27 02:33 107 10 gusting 15 7.2
2020-Feb-27 02:28 117 9 gusting 15 7.2
2020-Feb-27 02:23 106 10 gusting 15 7.2
2020-Feb-27 02:17 096 11 gusting 19 7.2
2020-Feb-27 02:12 125 12 gusting 20 7.2
2020-Feb-27 02:07 124 13 gusting 21 7.2
2020-Feb-27 02:02 126 11 gusting 21 7.2
2020-Feb-27 01:57 108 10 gusting 16 7.8
2020-Feb-27 01:52 123 9 gusting 19 7.8
2020-Feb-27 01:47 119 7 gusting 19 7.8
2020-Feb-27 01:42 117 6 gusting 13 7.8
2020-Feb-27 01:37 111 8 gusting 14 7.8
2020-Feb-27 01:32 154 10 gusting 15 7.8
2020-Feb-27 01:27 107 11 gusting 20 7.8
2020-Feb-27 01:22 104 10 gusting 20 7.8
2020-Feb-27 01:17 106 10 gusting 22 7.8
2020-Feb-27 01:12 144 9 gusting 22 7.8
2020-Feb-27 01:07 101 8 gusting 15 7.8
2020-Feb-27 01:02 092 11 gusting 19 7.8
2020-Feb-27 00:57 116 11 gusting 19 7.8
2020-Feb-27 00:52 083 9 gusting 15 7.8
2020-Feb-27 00:47 121 7 gusting 15 7.8
2020-Feb-27 00:42 117 6 gusting 13 7.8
2020-Feb-27 00:37 135 6 gusting 12 7.8
2020-Feb-27 00:32 123 6 gusting 12 7.8
2020-Feb-27 00:27 092 7 gusting 13 7.8
2020-Feb-27 00:22 135 8 gusting 13 7.8
2020-Feb-27 00:17 128 7 gusting 13 8.3
2020-Feb-27 00:12 123 8 gusting 16 8.3
2020-Feb-27 00:07 109 8 gusting 16 8.3
2020-Feb-27 00:02 096 7 gusting 13 8.3
2020-Feb-26 23:57 114 8 gusting 13 8.3
2020-Feb-26 23:52 121 8 gusting 14 7.8
2020-Feb-26 23:47 161 7 gusting 14 7.8
2020-Feb-26 23:42 117 7 gusting 13 7.8
2020-Feb-26 23:37 120 7 gusting 13 7.8
2020-Feb-26 23:32 126 6 gusting 11 7.8
2020-Feb-26 23:27 115 8 gusting 13 7.8
2020-Feb-26 23:22 094 7 gusting 13 7.8
2020-Feb-26 23:17 097 7 gusting 13 8.3
2020-Feb-26 23:12 105 8 gusting 13 7.8
2020-Feb-26 23:07 085 7 gusting 13 7.8
2020-Feb-26 23:02 090 6 gusting 13 7.8
2020-Feb-26 22:57 083 3 gusting 7 7.8
2020-Feb-26 22:52 078 3 gusting 8 7.8
2020-Feb-26 22:47 075 3 gusting 8 7.8
2020-Feb-26 22:42 075 3 gusting 7 7.8
2020-Feb-26 22:37 074 4 gusting 7 7.8
2020-Feb-26 22:32 071 4 gusting 7 7.8
2020-Feb-26 22:27 057 3 gusting 7 7.8
2020-Feb-26 22:22 070 1 gusting 6 7.8
2020-Feb-26 22:17 071 2 gusting 6 7.8
2020-Feb-26 22:12 072 3 gusting 6 7.8
2020-Feb-26 22:07 073 2 gusting 6 7.8
2020-Feb-26 22:02 089 1 gusting 5 7.8
2020-Feb-26 21:57 096 2 gusting 5 7.8
2020-Feb-26 21:52 116 3 gusting 5 7.8
2020-Feb-26 21:47 117 2 gusting 5 7.8
2020-Feb-26 21:42 124 1 gusting 4 7.8
2020-Feb-26 21:37 158 0 gusting 3 7.8
2020-Feb-26 21:32 159 1 gusting 6 7.8
2020-Feb-26 21:27 159 2 gusting 6 7.8
2020-Feb-26 21:21 063 2 gusting 6 7.8
2020-Feb-26 21:16 069 2 gusting 5 7.8
2020-Feb-26 21:11 071 1 gusting 5 7.8
2020-Feb-26 21:06 073 1 gusting 6 7.8
2020-Feb-26 21:01 073 2 gusting 6 7.8
2020-Feb-26 20:56 075 3 gusting 6 7.8
2020-Feb-26 20:51 080 4 gusting 6 7.2
2020-Feb-26 20:46 079 4 gusting 6 7.2
2020-Feb-26 20:41 075 3 gusting 6 7.2
2020-Feb-26 20:36 076 3 gusting 6 7.2
2020-Feb-26 20:31 077 3 gusting 6 7.2
2020-Feb-26 20:26 073 3 gusting 6 7.2
2020-Feb-26 20:21 069 4 gusting 8 7.2
2020-Feb-26 20:16 053 5 gusting 8 7.2
2020-Feb-26 20:11 047 4 gusting 8 7.2
2020-Feb-26 20:06 063 4 gusting 9 7.2
2020-Feb-26 20:01 068 5 gusting 9 7.2
2020-Feb-26 19:56 086 6 gusting 11 6.7
2020-Feb-26 19:51 054 6 gusting 11 6.7
2020-Feb-26 19:46 065 6 gusting 11 6.7
2020-Feb-26 19:41 067 6 gusting 11 6.7
2020-Feb-26 19:36 067 5 gusting 10 7.2
2020-Feb-26 19:31 061 4 gusting 9 7.2
2020-Feb-26 19:26 060 5 gusting 9 7.2
2020-Feb-26 19:20 048 3 gusting 8 7.2
2020-Feb-26 19:16 044 3 gusting 8 7.2
2020-Feb-26 19:10 044 5 gusting 9 7.2
2020-Feb-26 19:05 046 6 gusting 10 7.2
2020-Feb-26 19:00 050 6 gusting 10 7.2
2020-Feb-26 18:55 050 5 gusting 10 7.2
2020-Feb-26 18:50 052 3 gusting 8 7.2
2020-Feb-26 18:45 050 3 gusting 7 7.2
2020-Feb-26 18:40 050 4 gusting 7 7.2
2020-Feb-26 18:35 050 5 gusting 8 7.2
2020-Feb-26 18:30 052 6 gusting 9 7.2
2020-Feb-26 18:25 054 5 gusting 9 7.2
2020-Feb-26 18:20 057 3 gusting 7 7.8
2020-Feb-26 18:15 060 4 gusting 7 7.8
2020-Feb-26 18:10 060 5 gusting 9 7.8
2020-Feb-26 18:05 061 5 gusting 9 7.8
2020-Feb-26 18:00 065 5 gusting 8 7.8
2020-Feb-26 17:55 063 6 gusting 8 7.2
2020-Feb-26 17:50 062 6 gusting 8 7.2
2020-Feb-26 17:45 057 5 gusting 8 7.8
2020-Feb-26 17:40 060 5 gusting 8 7.8
2020-Feb-26 17:35 062 6 gusting 8 7.2
2020-Feb-26 17:30 062 6 gusting 8 7.2
2020-Feb-26 17:25 067 5 gusting 8 7.8
2020-Feb-26 17:20 070 4 gusting 7 7.8
2020-Feb-26 17:15 064 5 gusting 11 7.2
2020-Feb-26 17:10 065 6 gusting 11 7.2
2020-Feb-26 17:05 066 6 gusting 11 7.2
2020-Feb-26 17:00 062 6 gusting 10 7.8
2020-Feb-26 16:55 067 4 gusting 7 7.8
2020-Feb-26 16:50 064 3 gusting 7 7.8
2020-Feb-26 16:44 065 1 gusting 7 7.8
2020-Feb-26 16:39 060 1 gusting 6 7.8
2020-Feb-26 16:34 060 3 gusting 7 7.8
2020-Feb-26 16:30 059 3 gusting 7 7.8
2020-Feb-26 16:24 063 2 gusting 6 7.8
2020-Feb-26 16:19 063 1 gusting 6 7.8
2020-Feb-26 16:14 063 2 gusting 6 7.8
2020-Feb-26 16:09 064 3 gusting 6 7.8
2020-Feb-26 16:04 064 3 gusting 6 7.8
2020-Feb-26 15:59 063 2 gusting 6 7.8
2020-Feb-26 15:54 059 2 gusting 6 7.8
2020-Feb-26 15:49 058 4 gusting 8 7.8
2020-Feb-26 15:44 058 3 gusting 8 7.8
2020-Feb-26 15:39 058 1 gusting 7 7.8
2020-Feb-26 15:34 060 2 gusting 7 7.8
2020-Feb-26 15:29 063 2 gusting 7 7.8
2020-Feb-26 15:24 069 1 gusting 6 7.8
2020-Feb-26 15:19 069 0 gusting 6 7.8
2020-Feb-26 15:14 067 1 gusting 6 7.8
2020-Feb-26 15:09 067 3 gusting 8 7.8
2020-Feb-26 15:04 066 5 gusting 8 7.2
2020-Feb-26 14:59 068 4 gusting 8 7.2
2020-Feb-26 14:54 071 3 gusting 7 7.8
2020-Feb-26 14:49 075 3 gusting 8 7.8
2020-Feb-26 14:44 073 3 gusting 8 7.2
2020-Feb-26 14:39 075 3 gusting 7 7.8
2020-Feb-26 14:34 077 3 gusting 7 7.2
2020-Feb-26 14:29 073 3 gusting 7 7.2
2020-Feb-26 14:23 073 4 gusting 7 7.2
2020-Feb-26 14:18 075 4 gusting 7 7.8
2020-Feb-26 14:13 077 3 gusting 7 7.8
2020-Feb-26 14:08 077 1 gusting 6 7.8
2020-Feb-26 14:03 077 1 gusting 5 7.8
2020-Feb-26 13:58 077 1 gusting 5 7.8
2020-Feb-26 13:53 077 1 gusting 5 7.8
2020-Feb-26 13:48 077 1 gusting 5 7.8
2020-Feb-26 13:43 077 1 gusting 6 7.8
2020-Feb-26 13:38 077 1 gusting 6 7.8
2020-Feb-26 13:33 078 1 gusting 5 7.8
2020-Feb-26 13:28 078 0 gusting 5 7.8
2020-Feb-26 13:23 080 7.8
2020-Feb-26 13:18 080 7.8
2020-Feb-26 13:12 080 0 gusting 5 7.8
2020-Feb-26 13:07 080 1 gusting 6 7.8
2020-Feb-26 13:02 080 3 gusting 7 7.8
2020-Feb-26 12:57 080 3 gusting 7 7.2
2020-Feb-26 12:52 079 4 gusting 7 7.2
2020-Feb-26 12:47 078 4 gusting 7 7.2
2020-Feb-26 12:42 081 3 gusting 7 7.2
2020-Feb-26 12:37 079 2 gusting 7 7.2
2020-Feb-26 12:32 080 7.2
2020-Feb-26 12:27 080 0 gusting 5 7.2
2020-Feb-26 12:22 080 2 gusting 8 7.2
2020-Feb-26 12:17 080 4 gusting 9 7.2
2020-Feb-26 12:12 089 4 gusting 9 7.2
2020-Feb-26 12:07 073 4 gusting 11 7.2
2020-Feb-26 12:02 073 5 gusting 11 7.2
2020-Feb-26 11:57 078 4 gusting 8 7.2
2020-Feb-26 11:52 081 3 gusting 8 7.2
2020-Feb-26 11:47 067 3 gusting 7 7.2
2020-Feb-26 11:42 067 3 gusting 6 7.2
2020-Feb-26 11:36 067 3 gusting 7 7.2
2020-Feb-26 11:31 069 3 gusting 7 6.7
2020-Feb-26 11:26 068 3 gusting 7 6.7
2020-Feb-26 11:21 069 3 gusting 7 6.7
2020-Feb-26 11:16 066 3 gusting 8 6.7
2020-Feb-26 11:11 066 3 gusting 8 6.7
2020-Feb-26 11:06 061 2 gusting 6 6.7
2020-Feb-26 11:01 061 2 gusting 6 6.7
2020-Feb-26 10:56 061 3 gusting 7 6.7
2020-Feb-26 10:51 063 3 gusting 7 6.7
2020-Feb-26 10:46 063 3 gusting 6 6.7
2020-Feb-26 10:41 063 3 gusting 8 6.7
2020-Feb-26 10:36 062 3 gusting 8 6.7
2020-Feb-26 10:31 063 3 gusting 7 6.7
2020-Feb-26 10:26 061 3 gusting 7 6.7
2020-Feb-26 10:21 061 3 gusting 6 6.7
2020-Feb-26 10:16 061 3 gusting 8 6.7
2020-Feb-26 10:11 062 3 gusting 8 6.7
2020-Feb-26 10:06 068 1 gusting 6 6.7
2020-Feb-26 10:01 069 0 gusting 6 6.7
2020-Feb-26 09:55 068 0 gusting 6 6.7
2020-Feb-26 09:50 069 2 gusting 7 6.7
2020-Feb-26 09:45 068 4 gusting 7 6.7
2020-Feb-26 09:40 068 3 gusting 7 6.7
2020-Feb-26 09:35 068 2 gusting 7 6.7
2020-Feb-26 09:30 069 2 gusting 6 6.7
2020-Feb-26 09:25 071 1 gusting 6 6.7
2020-Feb-26 09:20 071 6.7
2020-Feb-26 09:15 071 6.7
2020-Feb-26 09:09 071 6.7
2020-Feb-26 09:04 071 6.7
2020-Feb-26 08:59 071 6.7
2020-Feb-26 08:54 071 6.7
2020-Feb-26 08:49 071 6.7
2020-Feb-26 08:43 071 1 gusting 5 6.7
2020-Feb-26 08:38 071 2 gusting 6 6.7
2020-Feb-26 08:33 071 1 gusting 6 6.7
2020-Feb-26 08:28 071 1 gusting 6 6.7
2020-Feb-26 08:23 071 2 gusting 5 6.7
2020-Feb-26 08:18 071 2 gusting 7 6.7
2020-Feb-26 08:13 071 3 gusting 7 6.7
2020-Feb-26 08:08 071 3 gusting 6 6.7
2020-Feb-26 08:03 071 3 gusting 7 6.7
2020-Feb-26 07:58 071 3 gusting 7 6.7
2020-Feb-26 07:53 073 2 gusting 6 6.7
2020-Feb-26 07:48 075 2 gusting 6 6.7
2020-Feb-26 07:43 075 1 gusting 7 6.7
2020-Feb-26 07:38 075 1 gusting 7 6.7
2020-Feb-26 07:32 076 1 gusting 7 6.7
2020-Feb-26 07:27 076 3 gusting 7 6.7
2020-Feb-26 07:22 076 2 gusting 6 7.2
2020-Feb-26 07:17 077 0 gusting 6 7.2
2020-Feb-26 07:12 077 7.2
2020-Feb-26 07:07 076 7.2
2020-Feb-26 07:02 077 7.2
2020-Feb-26 06:57 076 7.2
2020-Feb-26 06:52 077 7.2
2020-Feb-26 06:47 076 7.2
2020-Feb-26 06:42 077 7.2
2020-Feb-26 06:37 077 7.2
2020-Feb-26 06:32 076 7.2
2020-Feb-26 06:27 077 7.2
2020-Feb-26 06:22 076 7.2
2020-Feb-26 06:17 077 7.2
2020-Feb-26 06:12 076 7.2
2020-Feb-26 06:07 076 0 gusting 8 7.2
2020-Feb-26 06:02 077 0 gusting 8 7.2
2020-Feb-26 05:57 078 7.2
2020-Feb-26 05:52 079 7.2
2020-Feb-26 05:47 078 7.2
2020-Feb-26 05:42 079 7.2
2020-Feb-26 05:37 079 7.2
2020-Feb-26 05:32 078 7.2
2020-Feb-26 05:27 078 7.2
2020-Feb-26 05:21 079 7.2
2020-Feb-26 05:16 079 7.2
2020-Feb-26 05:11 078 7.2
2020-Feb-26 05:06 078 7.2
2020-Feb-26 05:01 078 7.2
2020-Feb-26 04:56 078 7.2
2020-Feb-26 04:51 078 7.2
2020-Feb-26 04:46 078 7.2
2020-Feb-26 04:41 078 7.2
2020-Feb-26 04:36 078 7.2
2020-Feb-26 04:31 079 7.2
2020-Feb-26 04:26 078 7.2
2020-Feb-26 04:21 078 7.2
2020-Feb-26 04:16 079 7.2
2020-Feb-26 04:11 078 7.2
2020-Feb-26 04:06 078 7.2
2020-Feb-26 04:01 079 7.2
2020-Feb-26 03:56 078 7.2
2020-Feb-26 03:51 079 7.2
2020-Feb-26 03:46 078 7.2
2020-Feb-26 03:41 079 7.2
2020-Feb-26 03:36 079 7.2
2020-Feb-26 03:30 078 7.2
2020-Feb-26 03:25 085 7.2
2020-Feb-26 03:20 085 7.2
2020-Feb-26 03:15 085 7.2
2020-Feb-26 03:10 086 7.2
2020-Feb-26 03:05 099 7.2
2020-Feb-26 03:00 099 7.2
2020-Feb-26 02:55 099 7.2
2020-Feb-26 02:50 098 7.2
2020-Feb-26 02:45 099 7.2
2020-Feb-26 02:40 098 7.2
2020-Feb-26 02:34 098 7.2
2020-Feb-26 02:29 099 7.8
2020-Feb-26 02:24 103 7.8
2020-Feb-26 02:19 103 7.8
2020-Feb-26 02:14 103 7.8
2020-Feb-26 02:09 103 7.8
2020-Feb-26 02:04 103 7.8
2020-Feb-26 01:59 103 7.8
2020-Feb-26 01:54 103 7.8
2020-Feb-26 01:49 103 7.2
2020-Feb-26 01:44 103 7.2
2020-Feb-26 01:39 103 7.2
2020-Feb-26 01:34 103 7.8
2020-Feb-26 01:29 103 7.2
2020-Feb-26 01:23 103 7.2
2020-Feb-26 01:18 103 7.2
2020-Feb-26 01:13 103 7.8
2020-Feb-26 01:08 103 7.8
2020-Feb-26 01:03 103 7.8
2020-Feb-26 00:57 103 7.8
2020-Feb-26 00:51 103 7.8
2020-Feb-26 00:46 103 7.8
2020-Feb-26 00:41 103 7.8
2020-Feb-26 00:36 103 7.8
2020-Feb-26 00:31 104 7.8
2020-Feb-26 00:25 103 7.8
2020-Feb-26 00:20 106 7.8
2020-Feb-26 00:15 109 7.8
2020-Feb-26 00:10 117 8.3
2020-Feb-26 00:05 131 8.3
2020-Feb-26 00:00 131 8.3
2020-Feb-25 23:55 131 8.3
2020-Feb-25 23:49 132 8.3
2020-Feb-25 23:44 152 8.3
2020-Feb-25 23:39 152 8.3
2020-Feb-25 23:33 159 8.3
2020-Feb-25 23:28 158 8.3
2020-Feb-25 23:23 159 8.3
2020-Feb-25 23:18 158 8.3
2020-Feb-25 23:13 159 8.3
2020-Feb-25 23:08 171 8.3
2020-Feb-25 23:03 171 8.3
2020-Feb-25 22:58 176 8.3
2020-Feb-25 22:53 177 8.3
2020-Feb-25 22:48 177 8.3
2020-Feb-25 22:42 183 8.3
2020-Feb-25 22:37 183 8.3
2020-Feb-25 22:32 183 8.3
2020-Feb-25 22:27 183 8.3
2020-Feb-25 22:22 183 8.3
2020-Feb-25 22:17 184 8.3
2020-Feb-25 22:12 184 8.3
2020-Feb-25 22:06 187 8.3
2020-Feb-25 22:01 187 8.9